FW1923 Weather Reports


Display with metric or nautical units.
time (UTC)temp
F
wind
direction
speed
MPH
gust
MPH
rain 1hr
in
rain 24hr
in
rain mn
in
humidity
%
barometer
mb
20260503220026 68 251 9.0 19.0 0.00 0.00 0.00 45 1003.8
20260503214523 68 211 9.0 15.0 0.00 0.00 0.00 46 1004.0
20260503213020 68 268 11.0 17.0 0.00 0.00 0.00 45 1004.1
20260503211523 67 240 11.0 20.0 0.00 0.00 0.00 45 1004.5
20260503210017 67 238 12.0 22.0 0.00 0.00 0.00 44 1004.6
20260503204513 67 238 10.0 22.0 0.00 0.00 0.00 46 1004.8
20260503203009 64 276 8.0 22.0 0.00 0.00 0.00 53 1005.1
20260503201508 64 202 7.0 21.0 0.00 0.00 0.00 52 1005.6
20260503200006 64 217 13.0 31.0 0.00 0.00 0.00 51 1006.0
20260503194503 64 240 8.0 25.0 0.00 0.00 0.00 51 1006.2
20260503193002 65 291 10.0 22.0 0.00 0.00 0.00 48 1006.3
20260503191600 64 239 9.0 21.0 0.00 0.00 0.00 45 1006.4
20260503190108 64 248 6.0 26.0 0.00 0.00 0.00 48 1006.4
20260503184556 64 179 12.0 21.0 0.00 0.00 0.00 47 1006.6
20260503183101 63 199 9.0 26.0 0.00 0.00 0.00 49 1006.7
20260503181550 62 197 10.0 23.0 0.00 0.00 0.00 51 1006.9
20260503180055 61 212 9.0 19.0 0.00 0.00 0.00 54 1007.2
20260503174543 59 213 8.0 22.0 0.00 0.00 0.00 58 1007.6
20260503173056 57 188 11.0 19.0 0.00 0.00 0.00 60 1008.0
20260503171541 56 184 10.0 25.0 0.00 0.00 0.00 61 1008.5
20260503081536 46 240 5.0 11.0 0.00 0.00 0.00 60 1012.3
20260503071517 45 232 5.0 13.0 0.00 0.00 0.00 62 1012.6
20260503054501 45 246 3.0 9.0 0.00 0.00 0.00 64 1013.4
20260503053100 44 222 3.0 8.0 0.00 0.00 0.00 64 1013.5
20260503051600 44 257 3.0 7.0 0.00 0.00 0.00 65 1013.6
20260503050053 44 263 3.0 7.0 0.00 0.00 0.00 66 1013.6
20260503044551 43 220 2.0 9.0 0.00 0.00 0.00 68 1013.8
20260503043053 43 234 2.0 7.0 0.00 0.00 0.00 69 1013.8
20260503041549 41 227 2.0 6.0 0.00 0.00 0.00 72 1013.9
20260503040049 40 227 1.0 4.0 0.00 0.00 0.00 75 1014.0
20260503034548 40 175 0.0 3.0 0.00 0.00 0.00 77 1014.2
20260503033047 40 132 0.0 0.0 0.00 0.00 0.00 77 1014.2
20260503031545 41 132 0.0 0.0 0.00 0.00 0.00 77 1014.3
20260503030044 41 132 0.0 0.0 0.00 0.00 0.00 75 1014.5
20260503024543 42 132 0.0 0.0 0.00 0.00 0.00 75 1014.5
20260503023043 42 132 0.0 2.0 0.00 0.00 0.00 74 1014.6
20260503021548 43 132 1.0 3.0 0.00 0.00 0.00 73 1014.6
20260503020050 43 131 0.0 2.0 0.00 0.00 0.00 71 1014.4
20260503014607 44 131 1.0 3.0 0.00 0.00 0.00 70 1014.3
20260503013041 45 136 0.0 3.0 0.00 0.00 0.00 69 1014.3
20260503011546 46 136 0.0 3.0 0.00 0.00 0.00 67 1014.3
20260503010049 46 136 1.0 6.0 0.00 0.00 0.00 66 1014.4
20260503004544 47 133 3.0 5.0 0.00 0.00 0.00 65 1014.4
20260503003036 48 148 1.0 6.0 0.00 0.00 0.00 63 1014.5
20260503001534 48 150 3.0 7.0 0.00 0.00 0.00 62 1014.4
20260503000033 49 126 4.0 8.0 0.00 0.00 0.00 60 1014.6
20260502234538 50 138 2.0 7.0 0.00 0.00 0.00 60 1014.7
20260502233029 50 117 3.0 9.0 0.00 0.00 0.00 58 1014.9
20260502231528 50 148 4.0 11.0 0.00 0.00 0.00 58 1015.0
20260502230027 50 119 5.0 10.0 0.00 0.00 0.00 58 1015.0
20260502224525 50 139 5.0 10.0 0.00 0.00 0.00 58 1015.1
20260502223025 50 123 7.0 13.0 0.00 0.00 0.00 56 1015.2
20260502221522 50 153 5.0 11.0 0.00 0.00 0.00 56 1015.3